Home   Weather   USA   Asheboro   Past weeks
Flag for USA

Past Weather in Asheboro, North Carolina, USA — Yesterday and Last 2 Weeks

Currently: 48 °F. Mostly cloudy. (Weather station: Asheboro Municipal Airport, USA). See more current weather

Past Weather in Asheboro — Graph

°F

Asheboro Temperature Yesterday

Maximum temperature yesterday: 64 °F (at 12:15 am)
Minimum temperature yesterday: 45 °F (at 11:25 pm)
Average temperature yesterday: 53 °F

High & Low Weather Summary for the Past Weeks

 TemperatureHumidityPressure
High86 °F (Apr 15, 4:25 pm)100% (Apr 9, 8:55 am)30.25 "Hg (Apr 9, 8:55 am)
Low36 °F (Apr 7, 8:05 am)20% (Apr 13, 6:05 pm)29.45 "Hg (Apr 11, 7:45 pm)
Average64 °F64%30.03 "Hg
* Reported Apr 7 8:05 am — Apr 22 8:55 am, Asheboro. Weather by CustomWeather, © 2024

Note: Actual official high and low records may vary slightly from our data, if they occured in-between our weather recording intervals... More about our weather records

Asheboro Weather History for the Previous 24 Hours

Scroll right to see more
 ConditionsComfort  
Time TempWeatherWind HumidityBarometerVisibility
8:55 am
Mon, Apr 22
43 °FOvercast.6 mph100%30.17 "Hg10 mi
8:05 am43 °FMore clouds than sun.5 mph100%30.15 "Hg10 mi
7:25 am43 °FLow clouds.5 mph100%30.13 "Hg10 mi
6:45 am44 °FMore clouds than sun.3 mph100%30.11 "Hg10 mi
6:35 am44 °FMostly cloudy.3 mph100%30.10 "Hg10 mi
6:25 am44 °FLow clouds.3 mph100%30.10 "Hg7 mi
6:15 am44 °FFog.No wind100%30.09 "Hg4 mi
6:05 am44 °FFog.No wind100%30.09 "Hg4 mi
5:25 am44 °FFog.No wind100%30.08 "Hg1 mi
5:15 am44 °FFog.No wind100%30.07 "Hg1 mi
4:55 am45 °FFog.No wind100%30.08 "Hg1 mi
4:15 am44 °FFog.No wind100%30.07 "Hg1 mi
3:15 am44 °FFog.No wind100%30.06 "Hg1 mi
2:55 am44 °FFog.No wind100%30.06 "Hg0 mi
2:35 am44 °FFog.No wind100%30.06 "Hg1 mi
2:15 am45 °FFog.No wind100%30.07 "Hg5 mi
2:05 am45 °FLow clouds.No wind100%30.07 "Hg7 mi
1:45 am44 °FMostly cloudy.No wind100%30.07 "Hg7 mi
1:25 am44 °FFog.No wind100%30.07 "Hg1 mi
1:05 am44 °FFog.No wind100%30.07 "Hg0 mi
12:45 am44 °FFog.No wind100%30.07 "Hg0 mi
12:25 am44 °FFog.No wind100%30.06 "Hg0 mi
12:05 am44 °FFog.No wind100%30.05 "Hg0 mi
11:25 pm
Sun, Apr 21
45 °FFog.No wind100%30.05 "Hg0 mi
10:55 pm45 °FFog.No wind100%30.04 "Hg0 mi
10:05 pm47 °FPassing clouds.No wind100%30.04 "Hg7 mi
9:35 pm48 °FMostly cloudy.No wind100%30.03 "Hg10 mi
8:55 pm48 °FMostly cloudy.No wind100%30.01 "Hg10 mi
8:05 pm48 °FPassing clouds.No wind100%29.99 "Hg10 mi
7:55 pm48 °FScattered clouds.No wind100%29.98 "Hg10 mi
7:35 pm48 °FScattered clouds.No wind100%29.97 "Hg10 mi
7:15 pm49 °FBroken clouds.3 mph100%29.96 "Hg10 mi
6:55 pm49 °FDrizzle. More clouds than sun.3 mph100%29.96 "Hg10 mi
6:25 pm49 °FLight rain. Overcast.3 mph100%29.97 "Hg10 mi
6:05 pm49 °FLight rain. More clouds than sun.5 mph100%29.97 "Hg10 mi
5:45 pm49 °FLight rain. Mostly cloudy.3 mph100%29.98 "Hg10 mi
5:25 pm49 °FLight rain. Cloudy.No wind100%29.99 "Hg10 mi
5:05 pm49 °FLight rain. Cloudy.5 mph100%29.99 "Hg10 mi
4:35 pm49 °FLight rain. Cloudy.5 mph100%30.00 "Hg10 mi
4:05 pm49 °FLight rain. Cloudy.7 mph100%29.99 "Hg10 mi
3:15 pm49 °FLight rain. Mostly cloudy.7 mph100%30.01 "Hg10 mi
2:55 pm48 °FLight rain. Overcast.6 mph100%30.00 "Hg10 mi
2:15 pm48 °FLight rain. Mostly cloudy.8 mph100%30.01 "Hg10 mi
2:05 pm48 °FRain. Low clouds.6 mph100%30.02 "Hg10 mi
1:25 pm48 °FRain. Mostly cloudy.7 mph100%30.01 "Hg10 mi
1:05 pm48 °FRain. Mostly cloudy.9 mph100%30.02 "Hg10 mi
12:05 pm48 °FLight rain. Mostly cloudy.7 mph100%30.02 "Hg10 mi
11:25 am47 °FRain. Mostly cloudy.5 mph99%30.06 "Hg7 mi
11:15 am48 °FRain. Mostly cloudy.3 mph96%30.07 "Hg7 mi
Weather by CustomWeather, © 2024

See weather overview